Location: Brede
(50.9167°N, 0.6000°E)
Time: 03:13:23
(UTC+00:00)

Cosmos 1464 Rocket - Pass Details

Date: 08 August 2020
Orbit: 952 x 1001 km, 82.9° (Epoch: 27 September)

Event Time Altitude Azimuth Distance (km) Brightness Sun altitude
Exits shadow 00:34:37 46° 190° (S) 1,292 4.2 -22.7°
Maximum altitude 00:36:40 89° 277° (W) 984 3.9 -22.6°
Drops below altitude 10° 00:42:55 10° 10° (N) 2,719 7.5 -22.5°
Sets 00:45:25 0° 10° (N) 3,664 8.5 -22.4°
